Weather History for KBVN - February, 2014

Change the Weather History Date:

Tuesday, February 11, 2014

  Actual Average (KOFK) Record (KOFK)
Temperature  
Mean Temperature 18 °F 26 °F  
Max Temperature 24 °F 36 °F 65 °F (1977)
Min Temperature 11 °F 15 °F -35 °F (1899)
Degree Days  
Heating Degree Days 48 39  
Month to date heating degree days 445  
Since 1 July heating degree days 4467  
Cooling Degree Days 0 0  
Month to date cooling degree days 0  
Year to date cooling degree days 0  
Moisture  
Dew Point 12 °F    
Average Humidity 77    
Maximum Humidity 81    
Minimum Humidity 73    
Precipitation  
Precipitation 0.00 in 0.02 in 0.61 in (1908)
Month to date precipitation 0.27  
Year to date precipitation 0.86  
Snow  
Snow 0.00 in 0.20 in - ()
Month to date snowfall 2.4  
Since 1 July snowfall 19.7  
Snow Depth -    
Sea Level Pressure  
Sea Level Pressure 30.14 in    
Wind  
Wind Speed 11 mph (South)    
Max Wind Speed 22 mph    
Max Gust Speed 25 mph    
Visibility 10 miles    
Events      
T = Trace of Precipitation, MM = Missing Value Source: NWS Daily Summary

Daily Weather History Graph

Daily Weather History Graph

Search for Another Location

Airport or City:

Trip Planner

Search our weather history database for the weather conditions in past years. The results will help you decide how hot, cold, wet, or windy it might be!

Date:

Astronomy

Feb. 11, 2014 Rise Set
Actual Time 7:32 AM CST 6:00 PM CST
Civil Twilight 7:04 AM CST 6:29 PM CST
Nautical Twilight 6:31 AM CST 7:02 PM CST
Astronomical Twilight 5:59 AM CST 7:34 PM CST
Moon 3:21 PM CST (2/11) 5:12 AM CST (2/11)
Length of Visible Light 11h 25m
Length of Day
10h 27m
Waxing Gibbous, 91% of the Moon is Illuminated
Feb 11
Waxing Gibbous
Feb 14
Full
Feb 22
Last Quarter
Mar 1
New
Mar 8
First Quarter

Hourly Weather History & Observations

Time (CST) Temp. Windchill Dew Point Humidity Pressure Visibility Wind Dir Wind Speed Gust Speed Precip Events Conditions
12:15 AM 11.1 °F 1.7 °F 5.2 °F 77% 30.34 in 10.0 mi SSE 5.8 mph - N/A   Overcast
12:35 AM 11.3 °F 0.7 °F 5.4 °F 77% 30.34 in 10.0 mi South 6.9 mph - N/A   Overcast
12:55 AM 11.5 °F -0.2 °F 5.4 °F 76% 30.34 in 10.0 mi SSE 8.1 mph - N/A   Overcast
1:15 AM 11.7 °F 1.1 °F 5.5 °F 76% 30.34 in 10.0 mi SSE 6.9 mph - N/A   Overcast
1:35 AM 11.7 °F -0.9 °F 5.5 °F 76% 30.32 in 10.0 mi SSE 9.2 mph - N/A   Overcast
1:55 AM 11.7 °F 0.0 °F 5.7 °F 77% 30.32 in 10.0 mi South 8.1 mph - N/A   Overcast
2:15 AM 11.8 °F 0.3 °F 5.7 °F 76% 30.32 in 10.0 mi South 8.1 mph - N/A   Overcast
2:35 AM 11.8 °F 1.3 °F 5.7 °F 76% 30.32 in 10.0 mi South 6.9 mph - N/A   Overcast
2:55 AM 11.8 °F -0.7 °F 5.7 °F 76% 30.31 in 10.0 mi South 9.2 mph - N/A   Overcast
3:15 AM 12.0 °F 0.5 °F 5.7 °F 76% 30.31 in 10.0 mi South 8.1 mph - N/A   Overcast
3:35 AM 11.8 °F -0.7 °F 5.7 °F 76% 30.30 in 10.0 mi South 9.2 mph - N/A   Overcast
3:55 AM 11.8 °F -1.5 °F 5.5 °F 76% 30.30 in 10.0 mi South 10.4 mph - N/A   Overcast
4:15 AM 11.7 °F -3.2 °F 5.5 °F 76% 30.29 in 10.0 mi South 12.7 mph - N/A   Overcast
4:35 AM 11.7 °F -1.7 °F 5.5 °F 76% 30.28 in 10.0 mi South 10.4 mph - N/A   Overcast
4:55 AM 11.7 °F 0.0 °F 5.5 °F 76% 30.28 in 10.0 mi South 8.1 mph - N/A   Overcast
5:15 AM 11.7 °F 1.1 °F 5.5 °F 76% 30.28 in 10.0 mi South 6.9 mph - N/A   Overcast
5:35 AM 11.8 °F -1.5 °F 5.9 °F 77% 30.27 in 10.0 mi South 10.4 mph - N/A   Overcast
5:55 AM 12.0 °F -1.3 °F 6.1 °F 77% 30.27 in 10.0 mi South 10.4 mph - N/A   Overcast
6:15 AM 12.0 °F -1.3 °F 6.3 °F 78% 30.26 in 10.0 mi SSE 10.4 mph - N/A   Overcast
6:35 AM 12.9 °F -0.2 °F 7.2 °F 78% 30.26 in 10.0 mi South 10.4 mph - N/A   Overcast
6:55 AM 13.1 °F 0.1 °F 7.5 °F 78% 30.25 in 10.0 mi South 10.4 mph - N/A   Overcast
7:15 AM 13.5 °F -0.2 °F 7.9 °F 78% 30.25 in 10.0 mi South 11.5 mph - N/A   Overcast
7:35 AM 13.6 °F -1.3 °F 8.1 °F 78% 30.25 in 10.0 mi South 13.8 mph - N/A   Overcast
7:55 AM 13.6 °F -2.4 °F 8.2 °F 79% 30.25 in 10.0 mi South 16.1 mph 19.6 mph N/A   Overcast
8:15 AM 13.6 °F -3.0 °F 8.4 °F 80% 30.24 in 10.0 mi South 17.3 mph - N/A   Overcast
8:35 AM 13.6 °F -1.9 °F 8.4 °F 80% 30.24 in 10.0 mi South 15.0 mph 20.7 mph N/A   Overcast
8:55 AM 14.0 °F -2.0 °F 8.6 °F 79% 30.24 in 10.0 mi South 16.1 mph - N/A   Overcast
9:15 AM 14.5 °F -1.8 °F 9.0 °F 79% 30.23 in 10.0 mi South 17.3 mph - N/A   Overcast
9:35 AM 14.9 °F 0.3 °F 9.3 °F 79% 30.22 in 10.0 mi South 13.8 mph - N/A   Overcast
9:55 AM 15.1 °F -0.1 °F 9.5 °F 79% 30.22 in 10.0 mi South 15.0 mph 20.7 mph N/A   Overcast
10:15 AM 15.4 °F 0.4 °F 9.5 °F 77% 30.22 in 10.0 mi South 15.0 mph 19.6 mph N/A   Overcast
10:35 AM 15.8 °F 0.9 °F 9.9 °F 77% 30.21 in 10.0 mi South 15.0 mph - N/A   Overcast
10:55 AM 16.7 °F -0.3 °F 10.4 °F 76% 30.21 in 10.0 mi South 20.7 mph - N/A   Overcast
11:15 AM 17.2 °F 1.2 °F 10.9 °F 76% 30.20 in 10.0 mi South 18.4 mph 23.0 mph N/A   Overcast
11:35 AM 18.1 °F 1.6 °F 11.7 °F 76% 30.20 in 10.0 mi South 20.7 mph - N/A   Overcast
11:55 AM 18.5 °F 2.0 °F 11.5 °F 74% 30.18 in 10.0 mi SSW 20.7 mph 25.3 mph N/A   Overcast
12:15 PM 18.9 °F 3.8 °F 12.0 °F 75% 30.17 in 10.0 mi South 17.3 mph 21.9 mph N/A   Overcast
12:35 PM 20.1 °F 4.6 °F 12.7 °F 73% 30.15 in 10.0 mi South 19.6 mph - N/A   Overcast
12:55 PM 20.1 °F 4.6 °F 12.9 °F 74% 30.13 in 10.0 mi South 19.6 mph - N/A   Overcast
1:15 PM 21.0 °F 5.0 °F 13.6 °F 73% 30.11 in 10.0 mi South 21.9 mph 25.3 mph N/A   Overcast
1:35 PM 21.2 °F 5.6 °F 14.2 °F 74% 30.10 in 10.0 mi South 20.7 mph - N/A   Overcast
1:55 PM 21.4 °F 6.6 °F 14.2 °F 74% 30.08 in 10.0 mi South 18.4 mph - N/A   Overcast
2:15 PM 22.1 °F 8.5 °F 14.9 °F 74% 30.06 in 10.0 mi South 16.1 mph 21.9 mph N/A   Overcast
2:35 PM 21.9 °F 7.3 °F 14.9 °F 74% 30.05 in 10.0 mi South 18.4 mph - N/A   Overcast
2:55 PM 22.5 °F 7.2 °F 15.4 °F 74% 30.05 in 10.0 mi South 20.7 mph - N/A   Overcast
3:15 PM 23.0 °F 8.7 °F 15.8 °F 74% 30.04 in 10.0 mi South 18.4 mph - N/A   Overcast
3:35 PM 23.5 °F 10.8 °F 16.7 °F 75% 30.04 in 10.0 mi South 15.0 mph 23.0 mph N/A   Overcast
3:55 PM 23.9 °F 10.3 °F 17.4 °F 76% 30.03 in 10.0 mi South 17.3 mph - N/A   Overcast
4:15 PM 23.9 °F 10.3 °F 17.6 °F 77% 30.02 in 10.0 mi SSW 17.3 mph 21.9 mph N/A   Overcast
4:35 PM 24.3 °F 11.2 °F 18.1 °F 77% 30.02 in 10.0 mi SSW 16.1 mph 23.0 mph N/A   Overcast
4:55 PM 24.4 °F 11.5 °F 18.5 °F 78% 30.01 in 10.0 mi SSW 16.1 mph 20.7 mph N/A   Overcast
5:15 PM 24.4 °F 11.9 °F 18.5 °F 78% 30.01 in 10.0 mi South 15.0 mph - N/A   Overcast
5:35 PM 24.6 °F 14.4 °F 18.7 °F 78% 30.01 in 10.0 mi South 10.4 mph - N/A   Overcast
5:55 PM 24.6 °F 13.8 °F 18.9 °F 79% 30.00 in 10.0 mi South 11.5 mph 19.6 mph N/A   Overcast
6:15 PM 24.6 °F 12.7 °F 19.2 °F 80% 29.99 in 10.0 mi South 13.8 mph - N/A   Overcast
6:35 PM 24.4 °F 13.0 °F 18.9 °F 79% 29.99 in 10.0 mi South 12.7 mph 17.3 mph N/A   Overcast
6:55 PM 23.9 °F 12.3 °F 18.0 °F 78% 29.99 in 10.0 mi South 12.7 mph 18.4 mph N/A   Overcast
7:15 PM 22.8 °F 12.2 °F 17.1 °F 79% 29.99 in 10.0 mi South 10.4 mph - N/A   Mostly Cloudy
7:35 PM 22.1 °F 10.6 °F 16.5 °F 79% 29.99 in 10.0 mi South 11.5 mph - N/A   Clear
7:55 PM 21.4 °F 9.7 °F 15.8 °F 79% 29.99 in 10.0 mi South 11.5 mph - N/A   Clear
8:15 PM 21.2 °F 10.1 °F 15.6 °F 79% 29.99 in 10.0 mi South 10.4 mph - N/A   Scattered Clouds
8:35 PM 21.0 °F 8.6 °F 15.4 °F 79% 29.98 in 10.0 mi South 12.7 mph - N/A   Scattered Clouds
8:55 PM 20.7 °F 9.5 °F 15.3 °F 80% 29.98 in 10.0 mi South 10.4 mph - N/A   Mostly Cloudy
9:15 PM 20.3 °F 8.3 °F 14.9 °F 80% 29.97 in 10.0 mi South 11.5 mph - N/A   Mostly Cloudy
9:35 PM 20.3 °F 9.0 °F 15.3 °F 81% 29.97 in 10.0 mi South 10.4 mph - N/A   Overcast
9:55 PM 20.8 °F 9.0 °F 15.4 °F 80% 29.97 in 10.0 mi South 11.5 mph - N/A   Overcast
10:15 PM 21.0 °F 9.9 °F 15.8 °F 80% 29.97 in 10.0 mi South 10.4 mph - N/A   Overcast
10:35 PM 21.0 °F 11.4 °F 15.6 °F 80% 29.97 in 10.0 mi SSE 8.1 mph - N/A   Overcast
10:55 PM 21.2 °F 10.9 °F 15.8 °F 80% 29.96 in 10.0 mi SSE 9.2 mph - N/A   Overcast
11:15 PM 21.6 °F 12.1 °F 16.3 °F 80% 29.96 in 10.0 mi South 8.1 mph - N/A   Overcast
11:35 PM 22.8 °F 12.9 °F 17.4 °F 80% 29.95 in 10.0 mi South 9.2 mph - N/A   Overcast
11:55 PM 23.4 °F 14.3 °F 17.6 °F 79% 29.94 in 10.0 mi South 8.1 mph - N/A   Overcast